GW0828 Weather Reports


Display with metric or nautical units.
time (UTC)temp
F
wind
direction
speed
MPH
gust
MPH
rain 1hr
in
rain 24hr
in
rain mn
in
humidity
%
barometer
mb
20260509213045 70 86 13.0 20.0 0.00 0.00 0.00 30 1013.0
20260509212537 70 114 11.0 20.0 0.00 0.00 0.00 32 1013.0
20260509212037 70 85 14.0 19.0 0.00 0.00 0.00 31 1013.1
20260509211544 70 88 12.0 18.0 0.00 0.00 0.00 31 1013.2
20260509211038 70 72 10.0 17.0 0.00 0.00 0.00 30 1013.3
20260509210537 70 79 9.0 19.0 0.00 0.00 0.00 31 1013.3
20260509210053 70 64 9.0 19.0 0.00 0.00 0.00 32 1013.4
20260509205538 70 86 11.0 19.0 0.00 0.00 0.00 33 1013.2
20260509205036 70 50 9.0 18.0 0.00 0.00 0.00 28 1013.3
20260509204552 70 77 13.0 18.0 0.00 0.00 0.00 28 1013.2
20260509204038 70 92 10.0 21.0 0.00 0.00 0.00 30 1013.1
20260509203537 70 59 11.0 21.0 0.00 0.00 0.00 30 1013.1
20260509203049 71 88 10.0 18.0 0.00 0.00 0.00 27 1013.1
20260509202537 72 74 8.0 18.0 0.00 0.00 0.00 29 1013.1
20260509202038 72 88 11.0 17.0 0.00 0.00 0.00 29 1013.2
20260509201550 73 67 1.0 14.0 0.00 0.00 0.00 20 1013.3
20260509201037 72 23 5.0 14.0 0.00 0.00 0.00 22 1013.2
20260509200537 73 25 7.0 14.0 0.00 0.00 0.00 21 1013.2
20260509200105 73 352 7.0 14.0 0.00 0.00 0.00 21 1013.2
20260509195536 73 44 6.0 13.0 0.00 0.00 0.00 20 1013.2
20260509195037 74 104 6.0 16.0 0.00 0.00 0.00 20 1013.3
20260509194545 75 342 7.0 16.0 0.00 0.00 0.00 17 1013.2
20260509194038 75 78 5.0 15.0 0.00 0.00 0.00 19 1013.1
20260509193538 75 342 7.0 15.0 0.00 0.00 0.00 21 1013.1
20260509193056 75 302 6.0 19.0 0.00 0.00 0.00 20 1013.1
20260509192536 75 342 7.0 22.0 0.00 0.00 0.00 19 1013.2
20260509192037 74 15 9.0 22.0 0.00 0.00 0.00 22 1013.2
20260509191546 75 27 6.0 19.0 0.00 0.00 0.00 21 1013.2
20260509191037 74 35 9.0 18.0 0.00 0.00 0.00 23 1013.2
20260509190537 74 352 7.0 17.0 0.00 0.00 0.00 19 1013.3
20260509190051 74 24 7.0 17.0 0.00 0.00 0.00 20 1013.3
20260509185537 73 19 9.0 17.0 0.00 0.00 0.00 22 1013.3
20260509185037 74 335 10.0 16.0 0.00 0.00 0.00 20 1013.4
20260509184559 74 293 8.0 16.0 0.00 0.00 0.00 22 1013.4
20260509184037 74 40 6.0 17.0 0.00 0.00 0.00 22 1013.3
20260509183537 74 321 8.0 17.0 0.00 0.00 0.00 20 1013.3
20260509183049 73 356 5.0 17.0 0.00 0.00 0.00 20 1013.3
20260509182537 73 6 8.0 17.0 0.00 0.00 0.00 21 1013.4
20260509182036 74 352 8.0 17.0 0.00 0.00 0.00 21 1013.4
20260509181558 74 347 6.0 14.0 0.00 0.00 0.00 23 1013.4
20260509181037 74 356 6.0 14.0 0.00 0.00 0.00 20 1013.4
20260509180540 74 297 7.0 14.0 0.00 0.00 0.00 19 1013.5
20260509180045 74 332 5.0 14.0 0.00 0.00 0.00 21 1013.5
20260509175537 74 323 4.0 14.0 0.00 0.00 0.00 20 1013.5
20260509175038 72 358 7.0 15.0 0.00 0.00 0.00 19 1013.5
20260509174546 70 342 7.0 18.0 0.00 0.00 0.00 22 1013.6
20260509174037 72 9 9.0 19.0 0.00 0.00 0.00 20 1013.5
20260509173537 73 26 7.0 19.0 0.00 0.00 0.00 23 1013.5
20260509173059 73 2 9.0 18.0 0.00 0.00 0.00 21 1013.6
20260509172537 73 299 7.0 18.0 0.00 0.00 0.00 24 1013.6
20260509172037 72 36 6.0 21.0 0.00 0.00 0.00 21 1013.6
20260509171547 71 12 13.0 22.0 0.00 0.00 0.00 22 1013.6
20260509171038 72 28 10.0 22.0 0.00 0.00 0.00 24 1013.6
20260509170537 71 6 12.0 24.0 0.00 0.00 0.00 23 1013.7
20260509170051 71 18 10.0 24.0 0.00 0.00 0.00 24 1013.7
20260509165536 71 31 12.0 22.0 0.00 0.00 0.00 23 1013.6
20260509165036 70 10 12.0 22.0 0.00 0.00 0.00 26 1013.7
20260509164548 70 11 11.0 21.0 0.00 0.00 0.00 24 1013.7
20260509164035 71 26 9.0 21.0 0.00 0.00 0.00 25 1013.7
20260509163536 71 342 10.0 20.0 0.00 0.00 0.00 26 1013.8
20260509163049 71 352 8.0 20.0 0.00 0.00 0.00 27 1013.8
20260509162537 73 325 4.0 15.0 0.00 0.00 0.00 25 1013.7
20260509162041 72 325 5.0 13.0 0.00 0.00 0.00 24 1013.6
20260509161549 70 333 4.0 15.0 0.00 0.00 0.00 27 1013.7
20260509161037 70 22 8.0 15.0 0.00 0.00 0.00 27 1013.8
20260509160538 71 21 6.0 15.0 0.00 0.00 0.00 28 1013.7
20260509160047 71 11 1.0 14.0 0.00 0.00 0.00 30 1013.7
20260509155536 70 342 3.0 14.0 0.00 0.00 0.00 30 1013.6
20260509155036 70 16 8.0 14.0 0.00 0.00 0.00 29 1013.7
20260509154545 70 32 4.0 11.0 0.00 0.00 0.00 31 1013.6
20260509154037 70 352 3.0 11.0 0.00 0.00 0.00 29 1013.6
20260509153537 70 331 4.0 14.0 0.00 0.00 0.00 30 1013.6
20260509153047 70 306 4.0 14.0 0.00 0.00 0.00 30 1013.6
20260509152538 69 310 3.0 12.0 0.00 0.00 0.00 36 1013.5
20260509152038 69 342 4.0 12.0 0.00 0.00 0.00 31 1013.5
20260509151601 68 322 2.0 11.0 0.00 0.00 0.00 34 1013.5
20260509151037 67 325 4.0 11.0 0.00 0.00 0.00 36 1013.5
20260509150537 66 246 3.0 11.0 0.00 0.00 0.00 36 1013.4
20260509150051 63 302 5.0 11.0 0.00 0.00 0.00 41 1013.4
20260509145537 61 275 1.0 4.0 0.00 0.00 0.00 53 1013.4
20260509145036 60 148 0.0 3.0 0.00 0.00 0.00 54 1013.4
20260509144603 59 150 1.0 3.0 0.00 0.00 0.00 58 1013.4
20260509144037 57 347 1.0 3.0 0.00 0.00 0.00 58 1013.5
20260509143538 57 347 0.0 3.0 0.00 0.00 0.00 60 1013.4
20260509143107 57 347 2.0 3.0 0.00 0.00 0.00 59 1013.5
20260509142535 58 0 0.0 3.0 0.00 0.00 0.00 59 1013.4
20260509142034 58 20 0.0 3.0 0.00 0.00 0.00 57 1013.2
20260509141545 58 338 0.0 4.0 0.00 0.00 0.00 58 1013.2
20260509141034 57 2 0.0 5.0 0.00 0.00 0.00 60 1013.2
20260509140537 57 55 2.0 5.0 0.00 0.00 0.00 62 1013.2
20260509140100 57 73 1.0 3.0 0.00 0.00 0.00 63 1013.4
20260509135536 56 90 1.0 3.0 0.00 0.00 0.00 65 1013.3
20260509135039 54 0 0.0 2.0 0.00 0.00 0.00 67 1013.3
20260509134608 53 0 0.0 1.0 0.00 0.00 0.00 71 1013.3
20260509134037 52 0 0.0 2.0 0.00 0.00 0.00 75 1013.3
20260509133537 51 0 0.0 3.0 0.00 0.00 0.00 75 1013.2
20260509133052 51 0 0.0 9.0 0.00 0.00 0.00 76 1013.2
20260509132537 50 347 1.0 9.0 0.00 0.00 0.00 76 1013.3
20260509132039 51 2 2.0 9.0 0.00 0.00 0.00 76 1013.1
20260509131548 51 360 2.0 5.0 0.00 0.00 0.00 73 1013.1
20260509131037 51 0 0.0 4.0 0.00 0.00 0.00 72 1013.1
20260509130539 50 0 1.0 4.0 0.00 0.00 0.00 75 1013.1
20260509130057 50 356 1.0 4.0 0.00 0.00 0.00 75 1013.0
20260509125536 50 357 0.0 4.0 0.00 0.01 0.00 77 1013.2
20260509125036 50 0 1.0 3.0 0.00 0.01 0.00 78 1013.1
20260509124550 49 356 0.0 3.0 0.00 0.01 0.00 78 1013.1
20260509124036 49 352 0.0 3.0 0.00 0.01 0.00 78 1012.9
20260509123536 49 357 1.0 3.0 0.00 0.01 0.00 77 1012.8
20260509123118 48 356 1.0 3.0 0.00 0.01 0.00 77 1012.9
20260509122537 48 356 1.0 4.0 0.00 0.01 0.00 76 1012.8
20260509122037 48 0 1.0 5.0 0.00 0.01 0.00 74 1012.8
20260509121607 49 2 1.0 5.0 0.00 0.01 0.00 73 1012.7
20260509121037 49 2 0.0 3.0 0.00 0.01 0.00 72 1012.7
20260509120537 49 2 1.0 2.0 0.00 0.01 0.00 71 1012.7
20260509120047 50 0 0.0 1.0 0.00 0.01 0.00 69 1012.5
20260509115536 50 0 0.0 2.0 0.00 0.04 0.00 69 1012.6
20260509115037 50 0 0.0 3.0 0.00 0.04 0.00 69 1012.4
20260509114544 50 0 0.0 3.0 0.00 0.04 0.00 69 1012.4
20260509114037 50 359 1.0 3.0 0.00 0.04 0.00 68 1012.3
20260509113539 51 0 0.0 6.0 0.00 0.04 0.00 69 1012.2
20260509113048 51 3 2.0 7.0 0.00 0.04 0.00 70 1012.3
20260509112536 51 347 4.0 7.0 0.00 0.04 0.00 71 1012.3
20260509112036 50 360 4.0 7.0 0.00 0.04 0.00 73 1012.2
20260509111603 50 6 2.0 11.0 0.00 0.04 0.00 75 1012.2
20260509111036 49 347 3.0 11.0 0.00 0.04 0.00 78 1012.1
20260509110537 48 347 7.0 11.0 0.00 0.04 0.00 82 1012.2
20260509110048 47 347 1.0 4.0 0.00 0.04 0.00 83 1012.1
20260509105537 47 347 1.0 3.0 0.00 0.04 0.00 83 1012.1
20260509105037 47 0 0.0 2.0 0.00 0.04 0.00 82 1012.0
20260509104548 47 0 0.0 2.0 0.00 0.04 0.00 82 1012.0
20260509104036 47 0 0.0 3.0 0.00 0.04 0.00 82 1012.0
20260509103536 47 0 0.0 4.0 0.00 0.04 0.00 82 1011.9
20260509103059 47 347 0.0 4.0 0.00 0.04 0.00 82 1011.9
20260509102537 47 347 2.0 4.0 0.00 0.04 0.00 80 1011.9
20260509102037 47 347 1.0 3.0 0.00 0.04 0.00 79 1011.6
20260509101615 47 0 1.0 3.0 0.00 0.04 0.00 79 1011.5
20260509101034 47 0 0.0 2.0 0.00 0.04 0.00 79 1011.5
20260509100538 47 0 0.0 2.0 0.00 0.04 0.00 79 1011.5
20260509100047 47 347 0.0 2.0 0.00 0.04 0.00 79 1011.5
20260509095535 47 0 0.0 2.0 0.00 0.04 0.00 79 1011.6
20260509095034 47 347 0.0 2.0 0.00 0.04 0.00 78 1011.7
20260509094549 48 347 0.0 1.0 0.00 0.04 0.00 78 1011.8
20260509094034 48 0 0.0 1.0 0.00 0.04 0.00 77 1011.7
20260509093537 48 0 0.0 4.0 0.00 0.04 0.00 77 1011.7
20260509093045 48 347 1.0 4.0 0.00 0.04 0.00 77 1011.8
20260509092534 49 347 0.0 3.0 0.00 0.04 0.00 77 1011.7
20260509092036 49 0 0.0 4.0 0.00 0.04 0.00 77 1011.7
20260509091551 49 347 1.0 6.0 0.00 0.04 0.00 77 1011.6
20260509091035 49 0 1.0 6.0 0.00 0.04 0.00 76 1011.6
20260509090535 49 347 1.0 4.0 0.00 0.04 0.00 76 1011.7
20260509085534 49 347 0.0 3.0 0.00 0.04 0.00 76 1011.7
20260509085037 49 347 0.0 3.0 0.00 0.04 0.00 76 1011.8
20260509084551 49 347 0.0 3.0 0.00 0.04 0.00 76 1011.7
20260509084036 49 347 1.0 3.0 0.00 0.04 0.00 77 1011.8
20260509083534 50 0 0.0 2.0 0.00 0.04 0.00 77 1011.6
20260509083053 50 356 0.0 2.0 0.00 0.04 0.00 76 1011.6
20260509082535 50 0 0.0 2.0 0.00 0.04 0.00 75 1011.6
20260509082038 50 0 0.0 3.0 0.00 0.04 0.00 74 1011.6
20260509081550 51 0 0.0 3.0 0.00 0.04 0.00 72 1011.6
20260509081035 51 347 1.0 5.0 0.00 0.04 0.00 72 1011.7
20260509080535 51 0 1.0 5.0 0.00 0.04 0.00 72 1011.7
20260509080044 51 0 0.0 3.0 0.00 0.04 0.00 71 1011.8
20260509075534 51 347 1.0 4.0 0.00 0.05 0.00 72 1011.8
20260509075035 51 0 1.0 4.0 0.00 0.05 0.00 74 1011.8
20260509074549 51 4 1.0 4.0 0.00 0.05 0.00 73 1012.1
20260509074037 52 358 1.0 3.0 0.00 0.05 0.00 74 1011.9
20260509073535 52 0 0.0 2.0 0.00 0.05 0.00 73 1012.3
20260509073101 52 6 0.0 2.0 0.00 0.05 0.00 71 1012.3
20260509072535 52 6 1.0 3.0 0.00 0.05 0.00 69 1012.5
20260509072036 52 356 0.0 3.0 0.00 0.05 0.00 68 1012.5
20260509071556 53 347 0.0 3.0 0.00 0.05 0.00 67 1012.5
20260509071037 53 5 0.0 3.0 0.00 0.05 0.00 68 1012.4
20260509070537 53 352 1.0 3.0 0.00 0.05 0.00 67 1012.4
20260509070050 54 0 1.0 3.0 0.00 0.05 0.00 65 1012.5
20260509065536 54 0 0.0 3.0 0.00 0.05 0.00 62 1012.5
20260509065036 54 0 0.0 8.0 0.00 0.05 0.00 62 1012.6
20260509064604 54 359 1.0 8.0 0.00 0.05 0.00 62 1012.5
20260509064037 54 358 2.0 8.0 0.00 0.05 0.00 63 1012.4
20260509063538 54 358 1.0 3.0 0.00 0.05 0.00 63 1012.5
20260509063048 54 0 0.0 1.0 0.00 0.05 0.00 65 1012.7
20260509062536 54 0 0.0 1.0 0.00 0.05 0.00 62 1012.8
20260509062036 54 0 0.0 4.0 0.00 0.05 0.00 63 1012.8
20260509061551 54 0 0.0 4.0 0.00 0.05 0.00 62 1012.8
20260509061036 54 358 1.0 3.0 0.00 0.05 0.00 63 1012.9
20260509060534 54 359 1.0 4.0 0.00 0.05 0.00 63 1013.0
20260509060050 54 359 1.0 4.0 0.00 0.05 0.00 64 1013.2
20260509055535 54 359 0.0 2.0 0.00 0.05 0.05 66 1013.2
20260509055034 54 359 0.0 1.0 0.00 0.05 0.05 66 1013.3
20260509054600 54 0 0.0 1.0 0.00 0.05 0.05 62 1013.4
20260509054038 54 0 0.0 1.0 0.00 0.05 0.05 61 1013.5
20260509053535 54 0 0.0 3.0 0.00 0.05 0.05 61 1013.4
20260509053055 55 359 0.0 3.0 0.00 0.05 0.05 62 1013.5
20260509052535 55 357 0.0 2.0 0.00 0.05 0.05 62 1013.6
20260509052036 55 0 0.0 3.0 0.00 0.05 0.05 61 1013.7
20260509051554 55 5 0.0 4.0 0.00 0.05 0.05 60 1013.7
20260509051034 55 0 1.0 4.0 0.00 0.05 0.05 59 1013.6
20260509050536 55 360 2.0 4.0 0.00 0.05 0.05 59 1013.7
20260509050046 55 360 1.0 2.0 0.00 0.05 0.05 59 1013.8
20260509045537 55 360 0.0 2.0 0.00 0.05 0.05 58 1013.8
20260509045034 56 0 0.0 2.0 0.00 0.05 0.05 59 1013.8
20260509044547 56 0 0.0 2.0 0.00 0.05 0.05 59 1013.8
20260509044036 56 0 0.0 3.0 0.00 0.05 0.05 56 1013.9
20260509043533 57 0 0.0 4.0 0.00 0.05 0.05 56 1013.9
20260509043045 57 0 1.0 4.0 0.00 0.05 0.05 57 1014.0
20260509042533 57 2 1.0 3.0 0.00 0.05 0.05 55 1013.9
20260509042037 58 2 0.0 5.0 0.00 0.05 0.05 54 1014.0
20260509041614 57 360 0.0 6.0 0.00 0.05 0.05 53 1014.0
20260509041034 57 360 2.0 7.0 0.00 0.05 0.05 53 1013.9
20260509040536 57 360 3.0 7.0 0.00 0.05 0.05 53 1013.9
20260509040050 57 360 2.0 5.0 0.00 0.05 0.05 53 1013.8
20260509035536 58 359 2.0 5.0 0.00 0.06 0.05 53 1013.8
20260509035037 58 359 1.0 4.0 0.00 0.06 0.05 53 1013.8
20260509034547 59 358 0.0 5.0 0.00 0.06 0.05 52 1013.7
20260509034037 59 359 2.0 5.0 0.00 0.06 0.05 51 1013.7
20260509033536 59 360 2.0 7.0 0.00 0.06 0.05 50 1013.7
20260509033047 59 359 3.0 7.0 0.00 0.06 0.05 49 1013.7
20260509032536 60 359 2.0 7.0 0.00 0.06 0.05 49 1013.6
20260509032032 60 359 3.0 7.0 0.00 0.06 0.05 48 1013.7
20260509031547 60 359 3.0 7.0 0.00 0.06 0.05 48 1013.6
20260509031034 60 359 2.0 7.0 0.00 0.06 0.05 48 1013.6
20260509030537 61 359 3.0 7.0 0.00 0.06 0.05 46 1013.6
20260509030046 61 359 2.0 5.0 0.00 0.06 0.05 46 1013.6
20260509025538 61 359 2.0 4.0 0.00 0.06 0.05 46 1013.6
20260509025038 62 360 2.0 4.0 0.00 0.06 0.05 45 1013.6
20260509024551 62 359 1.0 4.0 0.00 0.06 0.05 45 1013.6
20260509024038 62 360 1.0 4.0 0.00 0.06 0.05 44 1013.6
20260509023541 63 360 2.0 4.0 0.00 0.06 0.05 43 1013.6
20260509023104 63 360 0.0 3.0 0.00 0.06 0.05 43 1013.6
20260509022538 63 0 1.0 5.0 0.00 0.06 0.05 42 1013.6
20260509022041 63 360 1.0 5.0 0.00 0.06 0.05 42 1013.5
20260509021554 63 360 2.0 7.0 0.00 0.06 0.05 42 1013.4
20260509021037 64 360 3.0 8.0 0.00 0.06 0.05 41 1013.4
20260509020537 64 360 3.0 8.0 0.00 0.06 0.05 40 1013.3
20260509020053 64 359 3.0 8.0 0.00 0.06 0.05 39 1013.3
20260509015539 65 107 3.0 8.0 0.00 0.06 0.05 39 1013.3
20260509015039 65 170 4.0 8.0 0.00 0.06 0.05 39 1013.3
20260509014550 65 131 3.0 8.0 0.00 0.06 0.05 39 1013.2
20260509014038 65 111 3.0 9.0 0.00 0.06 0.05 39 1013.2
20260509013541 66 360 3.0 11.0 0.00 0.06 0.05 38 1013.1
20260509013054 66 1 5.0 11.0 0.00 0.06 0.05 37 1013.1
20260509012538 67 142 1.0 7.0 0.00 0.06 0.05 37 1013.1
20260509012038 67 166 3.0 7.0 0.00 0.06 0.05 36 1012.9
20260509011555 67 126 2.0 8.0 0.00 0.06 0.05 35 1012.9
20260509011042 67 137 1.0 8.0 0.00 0.06 0.05 34 1012.9
20260509010538 67 162 3.0 7.0 0.00 0.06 0.05 34 1013.0
20260509010053 68 153 3.0 7.0 0.00 0.06 0.05 34 1012.8
20260509005538 68 158 2.0 7.0 0.00 0.06 0.05 33 1013.0
20260509005037 68 149 3.0 7.0 0.00 0.06 0.05 34 1012.9
20260509004545 68 131 3.0 8.0 0.00 0.06 0.05 34 1013.0
20260509004037 68 110 3.0 8.0 0.00 0.06 0.05 33 1013.1
20260509003538 68 142 3.0 10.0 0.00 0.06 0.05 33 1013.0
20260509003049 68 185 5.0 10.0 0.00 0.06 0.05 33 1013.0
20260509002538 68 98 1.0 5.0 0.00 0.06 0.05 36 1012.9
20260509002039 68 0 2.0 5.0 0.00 0.06 0.05 34 1012.9
20260509001547 68 117 2.0 8.0 0.00 0.06 0.05 37 1012.9
20260509001039 68 154 2.0 8.0 0.00 0.06 0.05 35 1013.0
20260509000538 68 130 2.0 6.0 0.00 0.06 0.05 34 1013.0
20260509000050 68 84 2.0 5.0 0.00 0.06 0.05 35 1013.0
20260508235539 69 103 2.0 6.0 0.00 0.06 0.05 34 1013.0
20260508235039 69 88 2.0 8.0 0.00 0.06 0.05 32 1013.1
20260508234545 69 122 3.0 8.0 0.00 0.06 0.05 32 1013.2
20260508234038 69 174 4.0 8.0 0.00 0.06 0.05 32 1013.1
20260508233538 69 0 3.0 7.0 0.00 0.06 0.05 34 1013.1
20260508233103 70 148 2.0 7.0 0.00 0.06 0.05 33 1013.2
20260508232538 69 152 2.0 7.0 0.00 0.06 0.05 34 1013.2
20260508232038 70 146 1.0 10.0 0.00 0.06 0.05 32 1013.2
20260508231553 70 89 4.0 10.0 0.00 0.06 0.05 31 1013.2
20260508231038 70 87 3.0 8.0 0.00 0.06 0.05 32 1013.2
20260508230538 71 197 3.0 8.0 0.00 0.06 0.05 31 1013.2
20260508230051 70 204 3.0 8.0 0.00 0.06 0.05 31 1013.3
20260508225538 70 117 3.0 10.0 0.00 0.06 0.05 31 1013.2
20260508225039 70 153 3.0 10.0 0.00 0.06 0.05 31 1013.2
20260508224553 70 152 4.0 11.0 0.00 0.06 0.05 30 1013.2
20260508224038 70 93 5.0 12.0 0.00 0.06 0.05 32 1013.2
20260508223542 70 86 4.0 12.0 0.00 0.06 0.05 34 1013.3
20260508223049 69 95 4.0 12.0 0.00 0.06 0.05 35 1013.3
20260508222539 70 63 4.0 11.0 0.00 0.06 0.05 35 1013.3
20260508222037 70 71 3.0 11.0 0.00 0.06 0.05 34 1013.2
20260508221555 70 88 3.0 11.0 0.00 0.06 0.05 35 1013.2
20260508221038 70 184 1.0 8.0 0.00 0.06 0.05 34 1013.3
20260508220538 70 92 4.0 10.0 0.00 0.06 0.05 34 1013.2
20260508220055 70 114 3.0 10.0 0.00 0.06 0.05 35 1013.3
20260508215538 70 98 3.0 9.0 0.00 0.06 0.05 32 1013.3
20260508215038 69 102 4.0 11.0 0.00 0.06 0.05 35 1013.4
20260508214551 69 90 5.0 11.0 0.00 0.06 0.05 33 1013.4
20260508214038 69 88 2.0 8.0 0.00 0.06 0.05 34 1013.4
20260508213538 69 124 3.0 10.0 0.00 0.06 0.05 35 1013.4